Flag for U.S.A. Weather past 2 weeks in Plano, Texas, U.S.A.

Now
78 °F

Overcast.


Feels Like: 80 °F
Forecast: 72 / 89 °F
Wind: 15 mph from South

Location: McKinney Municipal Airport

Current Time: Oct 1, 2014 at 10:19:24 AM

Latest Report: Oct 1, 2014 at 9:53 AM


Visibility: 10 mi

Pressure: 29.82 "Hg

Humidity: 76%

Dew point: 70 °F

Location of PlanoLocation

Historic Weather in Plano — Graph

°F

Plano temperature yesterday

Maximum temperature yesterday: 90 °F (at 4:53 PM)
Minimum temperature yesterday: 63 °F (at 6:53 AM)
Average temperature yesterday: 77 °F

Past Weeks' High & Low Weather Summary

 TemperatureHumidityPressure
High93 °F (Sep 17, 4:53 PM)97% (Sep 19, 8:59 AM)30.22 "Hg (Sep 19, 8:59 AM)
Low52 °F (Sep 24, 7:53 AM)17% (Sep 24, 4:53 PM)29.74 "Hg (Sep 30, 5:53 PM)
Average75 °F63%30.02 "Hg
* Reported Sep 16 8:53 AM — Oct 1 8:53 AM, Plano, Weather by CustomWeather, © 2014

Note: Actual official high and low records may vary slightly from our data, if they occured in-between our weather recording intervals... More about our weather records

Advertising

Plano weather history for previous 24 hours

 ConditionsComfort  
Time TempWeatherWind HumidityBarometerVisibility
8:53 AM
Oct 1
75 °FPartly sunny.10 mph85%29.81 "Hg10 mi
7:53 AM73 °FPassing clouds.9 mph90%29.81 "Hg9 mi
6:53 AM72 °FClear.10 mph91%29.78 "Hg10 mi
5:53 AM72 °FClear.9 mph91%29.77 "Hg10 mi
4:53 AM72 °FClear.7 mph91%29.78 "Hg10 mi
3:53 AM73 °FClear.7 mph88%29.77 "Hg10 mi
2:53 AM74 °FClear.8 mph82%29.77 "Hg10 mi
1:53 AM73 °FClear.5 mph81%29.78 "Hg10 mi
12:53 AM75 °FClear.6 mph79%29.77 "Hg10 mi
11:53 PM
Sep 30
77 °FClear.8 mph71%29.76 "Hg10 mi
10:53 PM78 °FClear.8 mph66%29.76 "Hg10 mi
9:53 PM79 °FClear.8 mph65%29.77 "Hg10 mi
8:53 PM80 °FPassing clouds.7 mph58%29.76 "Hg10 mi
7:53 PM81 °FPassing clouds.8 mph56%29.75 "Hg10 mi
6:53 PM84 °FPassing clouds.8 mph49%29.75 "Hg10 mi
5:53 PM87 °FSunny.13 mph45%29.74 "Hg10 mi
4:53 PM90 °FSunny.13 mph41%29.75 "Hg10 mi
3:53 PM89 °FPassing clouds.16 mph42%29.77 "Hg10 mi
2:53 PM89 °FPassing clouds.10 mph42%29.79 "Hg10 mi
1:53 PM87 °FScattered clouds.10 mph48%29.83 "Hg10 mi
12:53 PM83 °FBroken clouds.8 mph59%29.86 "Hg10 mi
11:53 AM83 °FPassing clouds.10 mph61%29.88 "Hg10 mi
10:53 AM79 °FScattered clouds.8 mph69%29.90 "Hg10 mi
Weather by CustomWeather, © 2014

See weather overviewHow to use our weather pages